Voltar ao catálogo

STARLINK-11316

AtivoComunicaçõesVLEO
NORAD 61875·PAYLOAD·🇺🇸 United States

Lançado Nov 9, 2024 de Vandenberg Space Force Base

Loading…

Próximas Passagens (próximas 24 horas)

TLE

AtualizadoSource: CelesTrak SupGP

Época: Sep 15, 2026, 02:52 UTC

1 61875C 24204B   26258.11993056  .00064110  00000+0  52786-3 0  2586
2 61875  53.1564 142.1054 0001188  84.7418 195.7521 15.69688266    18

Acompanhe STARLINK-11316 em tempo real com AllMySat

Download on the App Store